Tracking 29594 objects as of 20-Sep-2024
HD Live streaming from Space Station
objects crossing your sky now

FENGYUN 1C DEB

Track FENGYUN 1C DEB now!
10-day predictions


NORAD ID: 36735
Int'l Code: 1999-025EBH
Perigee: 668.1 km
Apogee: 774.0 km
Inclination: 99.1 °
Period: 99.1 minutes
Semi major axis: 7092 km
RCS: 0.0108 m2 (small)
Launch date: May 10, 1999
Source: People's Republic of China (PRC)
Launch site: Taiyaun Space Center, China (TSC)

Note: This is SATELLITE DEBRIS
Your satellite tracking list
Your tracking list is empty




NASA's NSSDC Master Catalog

Two Line Element Set (TLE):
1 36735U 99025EBH 24264.41669708  .00017999  00000-0  41532-2 0  9990
2 36735  99.1230 315.6053 0074706  44.4267 316.2887 14.53596349880273
Source of the keplerian elements: AFSPC